TimeAKDT,TemperatureF,Dew PointF,Humidity,Sea Level PressureIn,VisibilityMPH,Wind Direction,Wind SpeedMPH,Gust SpeedMPH,PrecipitationIn,Events,Conditions,WindDirDegrees,DateUTC
12:16 AM,32.0,28.4,87,29.10,10.0,Calm,Calm,-,N/A,,Overcast,0,2012-10-16 08:16:00
12:36 AM,30.2,28.4,93,29.10,5.0,Calm,Calm,-,N/A,,Overcast,0,2012-10-16 08:36:00
12:56 AM,30.2,28.4,93,29.11,6.0,ESE,4.6,-,N/A,,Overcast,110,2012-10-16 08:56:00
1:16 AM,30.2,28.4,93,29.11,5.0,ESE,5.8,-,N/A,,Overcast,110,2012-10-16 09:16:00
1:36 AM,30.2,28.4,93,29.12,7.0,ESE,5.8,-,N/A,,Overcast,120,2012-10-16 09:36:00
1:56 AM,30.2,26.6,86,29.12,10.0,ESE,4.6,-,N/A,,Overcast,120,2012-10-16 09:56:00
2:16 AM,30.2,26.6,86,29.12,9.0,ESE,5.8,-,N/A,,Mostly Cloudy,120,2012-10-16 10:16:00
2:36 AM,30.2,26.6,86,29.13,10.0,East,4.6,-,N/A,,Overcast,100,2012-10-16 10:36:00
2:56 AM,30.2,28.4,93,29.13,10.0,East,4.6,-,N/A,,Overcast,80,2012-10-16 10:56:00
3:16 AM,30.2,26.6,86,29.13,10.0,East,8.1,-,N/A,,Overcast,100,2012-10-16 11:16:00
3:36 AM,30.2,26.6,86,29.14,10.0,East,8.1,-,N/A,,Overcast,100,2012-10-16 11:36:00
3:56 AM,30.2,26.6,86,29.14,4.0,ESE,5.8,-,N/A,,Overcast,110,2012-10-16 11:56:00
4:16 AM,28.4,26.6,93,29.15,2.5,East,5.8,-,N/A,,Overcast,100,2012-10-16 12:16:00
4:36 AM,28.4,26.6,93,29.15,4.0,ESE,5.8,-,N/A,,Mostly Cloudy,110,2012-10-16 12:36:00
4:56 AM,28.4,26.6,93,29.15,2.0,East,4.6,-,N/A,,Overcast,90,2012-10-16 12:56:00
5:16 AM,28.4,26.6,93,29.16,2.0,ENE,4.6,-,N/A,,Overcast,70,2012-10-16 13:16:00
5:36 AM,28.4,26.6,93,29.16,2.0,East,8.1,-,N/A,,Overcast,100,2012-10-16 13:36:00
5:56 AM,28.4,26.6,93,29.16,2.5,ENE,4.6,-,N/A,,Overcast,70,2012-10-16 13:56:00
6:16 AM,28.4,24.8,86,29.17,3.0,ENE,4.6,-,N/A,,Overcast,70,2012-10-16 14:16:00
6:36 AM,28.4,24.8,86,29.17,5.0,East,5.8,-,N/A,,Overcast,90,2012-10-16 14:36:00
6:56 AM,28.4,24.8,86,29.17,4.0,ENE,5.8,-,N/A,,Overcast,70,2012-10-16 14:56:00
7:16 AM,28.4,24.8,86,29.18,5.0,East,4.6,-,N/A,,Overcast,90,2012-10-16 15:16:00
7:36 AM,28.4,24.8,86,29.18,4.0,East,5.8,-,N/A,,Overcast,90,2012-10-16 15:36:00
7:56 AM,26.6,24.8,93,29.19,7.0,East,5.8,-,N/A,,Overcast,90,2012-10-16 15:56:00
8:16 AM,26.6,24.8,93,29.19,9.0,East,6.9,-,N/A,,Overcast,80,2012-10-16 16:16:00
8:36 AM,26.6,23.0,86,29.20,5.0,East,5.8,-,N/A,,Overcast,90,2012-10-16 16:36:00
8:56 AM,26.6,24.8,93,29.20,5.0,Calm,Calm,-,N/A,,Overcast,0,2012-10-16 16:56:00
9:16 AM,26.6,24.8,93,29.21,5.0,East,3.5,-,N/A,,Overcast,80,2012-10-16 17:16:00
9:36 AM,26.6,24.8,93,29.22,2.5,East,3.5,-,N/A,,Overcast,100,2012-10-16 17:36:00
9:56 AM,26.6,24.8,93,29.22,2.5,ENE,5.8,-,N/A,,Overcast,70,2012-10-16 17:56:00
10:16 AM,26.6,24.8,93,29.23,3.0,East,8.1,-,N/A,,Overcast,80,2012-10-16 18:16:00
10:36 AM,26.6,23.0,86,29.23,1.5,East,4.6,-,N/A,,Overcast,80,2012-10-16 18:36:00
10:56 AM,26.6,24.8,93,29.24,2.5,East,5.8,-,N/A,,Overcast,90,2012-10-16 18:56:00
11:16 AM,26.6,23.0,86,29.25,8.0,East,5.8,-,N/A,,Overcast,90,2012-10-16 19:16:00
11:36 AM,28.4,23.0,80,29.26,7.0,East,6.9,-,N/A,,Overcast,90,2012-10-16 19:36:00
11:56 AM,28.4,24.8,86,29.27,3.0,ENE,3.5,-,N/A,,Overcast,60,2012-10-16 19:56:00
12:16 PM,28.4,24.8,86,29.27,2.5,Calm,Calm,-,N/A,,Overcast,0,2012-10-16 20:16:00
12:36 PM,28.4,24.8,86,29.27,-9999.0,Calm,Calm,-,N/A,,Overcast,0,2012-10-16 20:36:00
12:56 PM,28.4,24.8,86,29.28,-9999.0,Calm,Calm,-,N/A,,Overcast,0,2012-10-16 20:56:00
1:16 PM,28.4,24.8,86,29.28,-9999.0,NNE,4.6,-,N/A,,Unknown,20,2012-10-16 21:16:00
1:36 PM,30.2,24.8,80,29.29,-9999.0,North,3.5,-,N/A,,Overcast,10,2012-10-16 21:36:00
1:56 PM,30.2,24.8,80,29.29,9.0,Calm,Calm,-,N/A,,Overcast,0,2012-10-16 21:56:00
2:16 PM,30.2,26.6,86,29.29,3.0,NNW,3.5,-,N/A,,Overcast,340,2012-10-16 22:16:00
2:36 PM,30.2,26.6,86,29.29,2.5,Calm,Calm,-,N/A,,Overcast,0,2012-10-16 22:36:00
2:56 PM,30.2,26.6,86,29.30,5.0,ENE,3.5,-,N/A,,Overcast,70,2012-10-16 22:56:00
3:16 PM,30.2,26.6,86,29.30,2.5,NNW,4.6,-,N/A,,Overcast,340,2012-10-16 23:16:00
3:36 PM,30.2,26.6,86,29.30,-9999.0,Calm,Calm,-,N/A,,Unknown,0,2012-10-16 23:36:00
3:56 PM,30.2,26.6,86,29.30,-9999.0,NNW,5.8,-,N/A,,Unknown,340,2012-10-16 23:56:00
4:16 PM,30.2,28.4,93,29.31,10.0,NE,5.8,-,N/A,,Overcast,50,2012-10-17 00:16:00
4:36 PM,30.2,24.8,80,29.32,10.0,NNE,3.5,-,N/A,,Overcast,20,2012-10-17 00:36:00
4:56 PM,30.2,26.6,86,29.32,10.0,East,5.8,-,N/A,,Overcast,80,2012-10-17 00:56:00
5:16 PM,30.2,24.8,80,29.33,1.2,ENE,9.2,-,N/A,,Overcast,70,2012-10-17 01:16:00
5:36 PM,30.2,24.8,80,29.34,5.0,ENE,3.5,-,N/A,,Overcast,70,2012-10-17 01:36:00
5:56 PM,28.4,26.6,93,29.35,1.2,East,3.5,-,N/A,,Overcast,90,2012-10-17 01:56:00
6:16 PM,28.4,26.6,93,29.35,0.5,Calm,Calm,-,N/A,,Overcast,0,2012-10-17 02:16:00
6:36 PM,28.4,26.6,93,29.36,1.0,Calm,Calm,-,N/A,,Overcast,0,2012-10-17 02:36:00
6:56 PM,28.4,26.6,93,29.37,-9999.0,Calm,Calm,-,N/A,,Unknown,0,2012-10-17 02:56:00
7:16 PM,28.4,26.6,93,29.38,-9999.0,North,3.5,-,N/A,,Unknown,360,2012-10-17 03:16:00
7:36 PM,28.4,26.6,93,29.40,-9999.0,ENE,4.6,-,N/A,,Overcast,60,2012-10-17 03:36:00
7:56 PM,28.4,26.6,93,29.40,1.0,NE,3.5,-,0.01,,Overcast,40,2012-10-17 03:56:00
8:16 PM,28.4,26.6,93,29.41,1.2,North,3.5,-,0.01,,Overcast,10,2012-10-17 04:16:00
8:36 PM,28.4,26.6,93,29.42,4.0,Calm,Calm,-,0.01,,Overcast,0,2012-10-17 04:36:00
8:56 PM,28.4,26.6,93,29.44,-9999.0,Calm,Calm,-,0.01,,Unknown,0,2012-10-17 04:56:00
9:16 PM,28.4,26.6,93,29.44,-9999.0,NNW,3.5,-,N/A,,Unknown,340,2012-10-17 05:16:00
9:36 PM,28.4,26.6,93,29.45,-9999.0,Calm,Calm,-,N/A,,Overcast,0,2012-10-17 05:36:00
9:56 PM,30.2,26.6,86,29.46,8.0,Calm,Calm,-,N/A,,Overcast,0,2012-10-17 05:56:00
10:16 PM,30.2,26.6,86,29.47,10.0,NNE,6.9,-,N/A,,Overcast,30,2012-10-17 06:16:00
10:36 PM,30.2,26.6,86,29.48,10.0,NE,5.8,-,N/A,,Overcast,50,2012-10-17 06:36:00
10:56 PM,30.2,26.6,86,29.49,10.0,NE,3.5,-,N/A,,Overcast,50,2012-10-17 06:56:00
11:16 PM,30.2,26.6,86,29.50,10.0,NE,5.8,-,N/A,,Overcast,40,2012-10-17 07:16:00
11:36 PM,30.2,26.6,86,29.51,10.0,NNE,6.9,-,N/A,,Overcast,30,2012-10-17 07:36:00
11:56 PM,30.2,26.6,86,29.52,10.0,NE,5.8,-,N/A,,Overcast,50,2012-10-17 07:56:00